Regional Weather Roundup
Issued by NWS Cleveland, OH

Home | Current Version | Previous Version | Graphics & Text | Print | Product List | Glossary On
Versions: 1 2 3 4 5 6 7 8 9 10 11 12 13 14 15 16 17 18 19 20 21 22 23 24 25 26 27 28 29 30 31 32 33 34 35 36 37 38 39 40 41 42 43 44 45 46 47 48 49 50
000
ASUS41 KCLE 281810
RWRCLE
OHIO REGIONAL WEATHER ROUNDUP
NATIONAL WEATHER SERVICE WILMINGTON, OH
200 PM EDT SUN AUG 28 2016

NOTE: "FAIR" INDICATES FEW OR NO CLOUDS BELOW 12,000 FEET WITH NO
SIGNIFICANT WEATHER AND/OR OBSTRUCTIONS TO VISIBILITY.

OHZ001>008-015>018-024>027-034-035-043-044-281900-
   NORTHWEST OHIO

CITY           SKY/WX    TMP DP  RH WIND       PRES   REMARKS
DEFIANCE       PTSUNNY   86  72  62 S3        30.19F HX  92
FINDLAY        FAIR      88  71  57 S3        30.18F HX  94
TOLEDO EXPRESS FAIR      87  74  64 S7        30.19S HX  95
TOLEDO EXEC    FAIR      87  73  62 W5        30.19F HX  94
LIMA           PTSUNNY   87  73  62 CALM      30.20F HX  94
$$

OHZ009>014-019>023-028>033-038-089-281900-
   NORTHEAST OHIO

CITY           SKY/WX    TMP DP  RH WIND       PRES   REMARKS
CLE-HOPKINS    FAIR      89  73  59 N10       30.21F HX  97
CLE-LAKEFRONT  FAIR      83  73  72 NW7       30.19S
CUY CO. ARPT   MOSUNNY   86  73  66 NW9       30.21F HX  93
LORAIN-ELYRIA  PTSUNNY   84  72  67 VRB5      30.20F
ASHTABULA      FAIR      85  72  65 W6        30.21F HX  91
AKRON-CANTON   FAIR      88  69  53 CALM      30.22F HX  92
WOOSTER        FAIR      85  71  63 CALM      30.22F HX  90
MANSFIELD      FAIR      88  70  55 VRB5      30.22F HX  93
YOUNGSTOWN     FAIR      86  66  51 CALM      30.22S
$$

OHZ042-051>053-060>062-070>072-077>081-281900-
  SOUTHWEST OHIO

CITY           SKY/WX    TMP DP  RH WIND       PRES   REMARKS
CINC-COVINGTON FAIR      89  72  56 E8        30.20F HX  96
CINC-LUNKEN    SUNNY     90  73  58 CALM      30.19S HX  98
HAMILTON       FAIR      89  73  59 E6        30.20F HX  97
DAYTON         FAIR      88  72  58 NE3       30.22F HX  94
WRIGHT-PAT AFB FAIR      88  73  61 E5        30.20F HX  95
DAYTON GENERAL FAIR      88  70  55 VRB3      30.20F HX  93
WILMINGTON     FAIR      87  72  60 CALM      30.21F HX  93
$$

OHZ036-037-039>041-045>050-054>059-063>069-073>076-082>088-281900-
  CENTRAL AND SOUTHEAST OHIO

CITY           SKY/WX    TMP DP  RH WIND       PRES   REMARKS
COLUMBUS       FAIR      87  70  56 VRB3      30.20F HX  92
OSU AIRPORT    FAIR      88  70  55 CALM      30.20F HX  93
BOLTON FIELD   SUNNY     88  72  58 CALM      30.21F HX  94
RICKENBACK AFB FAIR      86  71  59 SE3       30.20S HX  91
NEWARK         FAIR      88  70  55 VRB3      30.20F HX  93
MARION         CLOUDY    87  71  58 VRB3      30.21F HX  93
LANCASTER      FAIR      88  71  57 E7        30.20F HX  94
ZANESVILLE     FAIR      88  69  53 VRB6      30.21F HX  92
NEW PHILLY     FAIR      91  66  43 W5        30.21F HX  93
$$



USA.gov is the U.S. government's official web portal to all federal, state and local government web resources and services.